TimeEST,TemperatureF,Dew PointF,Humidity,Sea Level PressureIn,VisibilityMPH,Wind Direction,Wind SpeedMPH,Gust SpeedMPH,PrecipitationIn,Events,Conditions,WindDirDegrees,DateUTC
12:52 AM,25.0,21.0,85,30.41,9.0,Calm,Calm,-,N/A,,Clear,0,2013-01-08 05:52:00
1:52 AM,24.1,21.0,88,30.40,8.0,South,3.5,-,N/A,,Clear,170,2013-01-08 06:52:00
2:52 AM,26.1,21.0,81,30.39,9.0,SSE,5.8,-,N/A,,Clear,150,2013-01-08 07:52:00
3:52 AM,27.0,23.0,85,30.38,9.0,South,4.6,-,N/A,,Clear,190,2013-01-08 08:52:00
4:52 AM,28.0,23.0,81,30.39,10.0,SSW,3.5,-,N/A,,Clear,210,2013-01-08 09:52:00
5:52 AM,30.9,25.0,79,30.39,10.0,SSW,8.1,-,N/A,,Clear,200,2013-01-08 10:52:00
6:52 AM,30.9,26.1,82,30.40,10.0,WSW,5.8,-,N/A,,Clear,240,2013-01-08 11:52:00
7:52 AM,28.9,25.0,85,30.42,9.0,Calm,Calm,-,N/A,,Clear,0,2013-01-08 12:52:00
8:52 AM,33.1,28.0,82,30.43,10.0,South,4.6,-,N/A,,Partly Cloudy,180,2013-01-08 13:52:00
9:52 AM,37.9,30.0,73,30.42,10.0,South,8.1,-,N/A,,Mostly Cloudy,190,2013-01-08 14:52:00
10:52 AM,42.1,30.0,62,30.42,10.0,SW,5.8,-,N/A,,Mostly Cloudy,230,2013-01-08 15:52:00
11:52 AM,44.1,30.9,60,30.40,10.0,SSW,6.9,-,N/A,,Mostly Cloudy,200,2013-01-08 16:52:00
12:52 PM,46.9,30.0,52,30.38,10.0,South,6.9,-,N/A,,Mostly Cloudy,180,2013-01-08 17:52:00
1:52 PM,50.0,30.9,48,30.37,10.0,SSW,8.1,-,N/A,,Mostly Cloudy,200,2013-01-08 18:52:00
2:52 PM,51.1,30.0,44,30.38,10.0,SSW,5.8,-,N/A,,Mostly Cloudy,210,2013-01-08 19:52:00
3:52 PM,52.0,30.0,43,30.37,10.0,East,3.5,-,N/A,,Scattered Clouds,80,2013-01-08 20:52:00
4:52 PM,48.0,30.9,52,30.38,10.0,Calm,Calm,-,N/A,,Scattered Clouds,0,2013-01-08 21:52:00
5:52 PM,43.0,30.0,60,30.38,10.0,Calm,Calm,-,N/A,,Scattered Clouds,0,2013-01-08 22:52:00
6:52 PM,37.0,30.0,76,30.40,10.0,Calm,Calm,-,N/A,,Partly Cloudy,0,2013-01-08 23:52:00
7:52 PM,36.0,28.9,76,30.39,10.0,South,5.8,-,N/A,,Partly Cloudy,180,2013-01-09 00:52:00
8:52 PM,36.0,30.0,79,30.40,10.0,SSW,5.8,-,N/A,,Clear,200,2013-01-09 01:52:00
9:52 PM,36.0,28.9,76,30.39,10.0,SSE,3.5,-,N/A,,Clear,160,2013-01-09 02:52:00
10:52 PM,35.1,30.0,82,30.39,10.0,South,4.6,-,N/A,,Clear,170,2013-01-09 03:52:00
11:52 PM,35.1,28.9,78,30.38,10.0,Calm,Calm,-,N/A,,Clear,0,2013-01-09 04:52:00